Regional Weather Roundup
Issued by NWS Kansas City/Pleasant Hill, MO

Home | Current Version | Previous Version | Graphics & Text | Print | Product List | Glossary Off
Versions: 1 2 3 4 5 6 7 8 9 10 11 12 13 14 15 16 17 18 19 20 21 22 23 24 25 26 27 28 29 30 31 32 33 34 35 36 37 38 39 40 41 42 43 44 45 46 47 48 49 50

000
ASUS43 KEAX 250804
RWREAX

WEATHER ROUNDUP FOR EASTERN KANSAS AND NORTHWEST MISSOURI
NATIONAL WEATHER SERVICE KANSAS CITY/PLEASANT HILL MO
200 AM CST THU DEC 25 2014

KSZ040-057-103>105-MOZ028-029-037-043-250900-
...KANSAS CITY METROPOLITAN AREA...

CITY           SKY/WX    TMP DP  RH WIND       PRES   REMARKS
K.C. INTL      CLEAR     30  28  92 S10       29.78F WCI  21
K.C. DOWNTOWN  CLEAR     33  28  81 S9        29.80F WCI  25
LEES SUMMIT    CLEAR     31  27  85 S12       29.80F WCI  22
OLATHE - IXD   CLEAR     29  27  92 S10       29.81S WCI  20
OLATHE - OJC   CLEAR     31  28  89 S9        29.79F WCI  23
LAWRENCE       CLEAR     28  26  92 SE7       29.79F WCI  21

$$

MOZ001>008-011>017-020>025-030>033-038>040-044>046-053-054-250900-
...NORTHERN AND CENTRAL MISSOURI...

CITY           SKY/WX    TMP DP  RH WIND       PRES   REMARKS
ST. JOSEPH     CLEAR     31  28  89 S9        29.78S WCI  23
MOSBY            N/A     32  30  93 SE5       29.81F WCI  27
WARRENSBURG    CLEAR     30  28  93 S7        29.85S WCI  23
WHITEMAN AFB   NOT AVBL
CLINTON        CLEAR     32  30  93 S6        29.88R WCI  26
SEDALIA        CLEAR     32  28  85 S8        29.87R WCI  25
WARSAW         NOT AVBL
MARSHALL       CLEAR     34  32  93 S7        29.87R WCI  28
CHILLICOTHE      N/A     31  27  85 S6        29.83S WCI  25
MOBERLY        CLOUDY    36  28  75 SW10      29.87R WCI  28
KIRKSVILLE     CLOUDY    33  29  85 SW10      29.83R WCI  25

$$

MOZ041-047>049-056>058-063>065-088>090-097-250900-
...EASTERN AND SOUTHERN MISSOURI...

CITY           SKY/WX    TMP DP  RH WIND       PRES   REMARKS
ST. LOUIS INTL CLOUDY    39  30  70 W10       29.91R WCI  32
SPIRIT OF STL  CLOUDY    38  31  76 W9        29.90R WCI  31
COLUMBIA       PTCLDY    31  29  92 S7        29.89R WCI  24
JEFFERSON CITY FAIR      35  28  75 SW3       29.92R
MEXICO         CLOUDY    36  34  93 SW12      29.88R WCI  27
HANNIBAL       CLOUDY    37  28  70 SW16      29.86R WCI  28
ROLLA          PTCLDY    33  28  81 SW9       29.89R WCI  25
LEBANON        CLEAR     32  28  86 S7        29.90R WCI  26
OSAGE BEACH    CLEAR     32  27  80 S5        29.90R WCI  27
SPRINGFIELD    CLEAR     30  27  88 S10       29.90R WCI  21
NEVADA         CLEAR     30  28  93 S10       29.88R WCI  21
JOPLIN         CLEAR     33  29  85 S9        29.89S WCI  25
WEST PLAINS    CLEAR     30  26  85 SW3       29.94R

$$

IAZ060-094-KSZ022-034>040-054-083-096-NEZ052-066-093-250900-
...KANSAS...SOUTHEAST NEBRASKA AND IOWA...

CITY           SKY/WX    TMP DP  RH WIND       PRES   REMARKS
TOPEKA         CLEAR     33  28  81 S7        29.78R WCI  27
MANHATTAN      CLOUDY    32  26  78 SW8       29.73S WCI  25
EMPORIA        PTCLDY    28  25  88 S16       29.76F WCI  16
CHANUTE        FAIR      31  29  92 S10       29.83F WCI  22
WICHITA        PTCLDY    34  24  67 S15       29.75F WCI  24
OMAHA          PTCLDY    30  27  88 S15       29.67S WCI  19
LINCOLN        MOCLDY    31  25  78 S10       29.65R WCI  22
FALLS CITY     PTCLDY    31  27  85 S15G24    29.72S WCI  20
LAMONI         CLEAR     30  27  88 S12       29.76R WCI  20
DES MOINES     CLOUDY    32  27  81 SW13      29.74S WCI  22

$$



USA.gov is the U.S. government's official web portal to all federal, state and local government web resources and services.